Date,TemperatureHighF,TemperatureAvgF,TemperatureLowF,DewpointHighF,DewpointAvgF,DewpointLowF,HumidityHigh,HumidityAvg,HumidityLow,PressureMaxIn,PressureMinIn,WindSpeedMaxMPH,WindSpeedAvgMPH,GustSpeedMaxMPH,PrecipitationSumIn
2013-2-27,34,33,32,27,23,20,82,67,61,0.00,40.00,9,4,13,0.00
2013-2-28,36,33,30,32,30,24,100,91,67,0.00,40.00,8,2,13,0.09
2013-3-1,34,32,32,33,31,29,100,96,83,0.00,40.00,8,2,10,0.03
2013-3-2,37,29,19,32,20,-100,100,80,54,0.00,40.00,6,2,10,0.02
2013-3-3,39,25,16,29,20,15,98,84,50,0.00,40.00,2,1,5,0.01
2013-3-4,36,27,18,20,16,11,99,67,42,0.00,40.00,7,3,12,0.00
2013-3-5,32,30,27,11,8,7,48,40,36,0.00,40.00,10,7,15,0.00
2013-3-6,37,28,18,20,13,7,87,58,29,0.00,40.00,7,2,13,0.00
2013-3-7,37,24,14,24,16,12,92,77,37,0.00,40.00,2,1,5,0.00
2013-3-8,36,29,21,29,23,19,95,81,59,0.00,40.00,5,2,8,0.00
2013-3-9,36,33,32,34,32,28,100,97,84,0.00,40.00,1,0,3,0.05
2013-3-10,36,33,32,32,30,26,100,88,72,0.00,40.00,5,2,8,0.04
2013-3-11,34,32,30,32,27,21,100,82,64,0.00,40.00,6,2,11,0.01
2013-3-12,32,23,14,21,7,-2,64,50,31,0.00,40.00,7,4,11,0.00
2013-3-13,21,15,12,-2,-6,-10,53,39,29,0.00,40.00,6,4,10,0.00
2013-3-14,19,13,9,-4,-5,-7,52,43,35,0.00,40.00,9,5,17,0.00
2013-3-15,16,13,10,4,0,-5,70,55,41,0.00,40.00,9,7,17,0.00
2013-3-16,21,16,12,10,4,0,66,58,47,0.00,40.00,10,7,15,0.00
2013-3-17,25,18,14,4,2,0,59,49,37,0.00,40.00,6,3,11,0.00
2013-3-18,30,19,7,16,2,-4,86,51,25,0.00,40.00,3,2,10,0.00
2013-3-19,27,21,18,16,8,2,94,60,41,0.00,40.00,7,4,14,0.00
2013-3-20,21,15,10,2,-6,-9,50,39,28,0.00,40.00,7,4,12,0.00
2013-3-21,23,14,9,-2,-8,-11,62,38,27,0.00,40.00,7,4,12,0.00
2013-3-22,27,15,1,22,4,-4,97,65,30,0.00,40.00,3,1,6,0.00
2013-3-23,30,27,21,28,25,20,100,93,84,0.00,40.00,2,0,4,0.00
2013-3-24,36,31,27,33,29,27,100,93,72,0.00,40.00,1,0,3,0.06
2013-3-25,37,34,32,35,32,30,100,94,81,0.00,40.00,8,2,13,0.01
2013-3-26,34,32,32,31,24,21,88,71,64,0.00,40.00,9,8,15,0.00
2013-3-27,36,32,30,22,18,15,66,57,42,0.00,40.00,6,5,10,0.00
2013-3-28,37,33,27,23,18,15,87,57,42,0.00,40.00,4,2,7,0.00
2013-3-29,36,32,27,28,24,19,91,74,51,0.00,40.00,5,2,9,0.00
2013-3-30,36,34,32,35,31,-100,100,94,69,0.00,40.00,6,2,11,0.01
2013-3-31,43,36,32,34,32,29,100,88,61,0.00,40.00,3,1,6,0.00
2013-4-1,36,33,32,33,32,31,100,97,90,0.00,40.00,6,1,9,0.01
2013-4-2,39,34,32,32,29,24,99,81,55,0.00,40.00,6,2,9,0.02
2013-4-3,41,34,27,32,28,23,100,79,49,0.00,40.00,3,1,5,0.03
2013-4-4,32,29,25,25,10,1,92,46,26,0.00,40.00,6,4,11,0.00
2013-4-5,30,24,18,8,4,1,53,43,30,0.00,40.00,6,4,13,0.00
2013-4-6,32,27,21,31,18,5,99,69,46,0.00,40.00,10,4,16,0.01
2013-4-7,48,36,30,32,29,23,100,78,38,0.00,40.00,6,2,10,0.01
2013-4-8,43,36,32,34,31,29,100,84,57,0.00,40.00,4,1,6,0.02
2013-4-9,39,34,32,34,29,19,100,85,58,0.00,40.00,11,4,16,0.26
2013-4-10,36,32,30,25,21,15,75,63,43,0.00,40.00,9,6,14,0.00
2013-4-11,36,31,28,29,21,17,95,67,46,0.00,40.00,8,4,11,0.01
2013-4-12,39,33,28,29,19,14,96,58,37,0.00,40.00,6,4,10,0.00
2013-4-13,39,32,27,22,12,6,67,44,28,0.00,40.00,5,3,9,0.00
2013-4-14,43,34,28,24,14,10,81,45,28,0.00,40.00,5,3,10,0.00
2013-4-15,45,36,30,29,16,10,88,44,29,0.00,40.00,6,4,14,0.00
2013-4-16,34,32,32,32,30,27,100,91,79,0.00,40.00,5,2,8,0.01
2013-4-17,36,34,32,35,33,32,100,97,89,0.00,40.00,1,0,3,0.06
2013-4-18,41,34,30,32,27,18,100,79,53,0.00,40.00,3,1,8,0.01
2013-4-19,37,30,25,18,11,5,64,46,25,0.00,40.00,4,2,8,0.00
2013-4-20,41,32,25,23,14,8,83,49,27,0.00,40.00,4,2,9,0.00
2013-4-21,43,30,18,26,16,10,90,62,28,0.00,40.00,4,1,8,0.00
2013-4-22,39,33,27,32,28,25,94,83,63,0.00,40.00,4,1,9,0.00
2013-4-23,43,37,32,31,28,24,96,71,50,0.00,40.00,5,2,8,0.00
2013-4-24,37,36,32,36,34,27,100,92,65,0.00,40.00,4,1,7,0.04
2013-4-25,36,33,32,33,32,31,100,96,89,0.00,40.00,2,0,4,0.01
2013-4-26,34,32,30,32,24,20,98,73,62,0.00,40.00,7,4,10,0.00
2013-4-27,34,31,28,28,24,16,93,74,50,0.00,40.00,4,1,10,0.01
2013-4-28,34,30,25,28,11,1,93,47,27,0.00,40.00,6,3,11,0.00
2013-4-29,36,27,21,21,4,0,78,38,22,0.00,40.00,5,2,8,0.00
2013-4-30,32,30,23,32,26,19,98,86,78,0.00,40.00,6,3,9,0.01
2013-5-1,39,34,32,37,32,29,99,93,82,0.00,40.00,7,4,10,0.07
2013-5-2,45,41,37,38,36,34,97,83,69,0.00,40.00,10,6,15,0.02
2013-5-3,46,41,37,39,37,35,98,84,67,0.00,40.00,7,5,12,0.02
2013-5-4,50,42,34,44,40,34,100,92,77,0.00,40.00,8,4,12,0.09
2013-5-5,46,42,34,38,36,33,100,78,63,0.00,40.00,5,3,9,0.00
2013-5-6,50,40,32,37,32,28,100,78,42,0.00,40.00,4,1,8,0.01
2013-5-7,54,40,32,34,28,20,99,70,26,0.00,40.00,4,1,7,0.00
2013-5-8,57,42,30,32,27,21,99,63,24,0.00,40.00,5,2,10,0.00
2013-5-9,59,46,32,32,28,25,98,57,29,0.00,40.00,4,2,9,0.00
2013-5-10,63,47,34,34,26,-100,91,53,24,0.00,40.00,4,2,8,0.00
2013-5-11,50,40,32,44,37,-100,100,91,80,0.00,40.00,1,0,3,0.02
2013-5-12,46,39,34,44,38,34,100,98,90,0.00,40.00,1,0,6,0.01
2013-5-13,46,40,34,42,38,34,100,92,71,0.00,40.00,6,2,11,0.03
2013-5-14,46,43,36,40,36,34,100,77,62,0.00,40.00,6,4,10,0.01
2013-5-15,50,44,36,39,33,25,94,67,37,0.00,40.00,7,4,11,0.01
2013-5-16,52,39,32,37,18,-100,96,69,45,0.00,40.00,6,3,11,0.00
2013-5-17,48,42,36,44,37,-100,100,92,78,0.00,40.00,3,1,10,0.01
2013-5-18,46,41,36,43,35,25,100,83,52,0.00,40.00,6,2,10,0.03
2013-5-19,46,38,32,31,26,21,90,63,43,0.00,40.00,5,3,9,0.00
2013-5-20,45,38,32,30,20,9,93,54,24,0.00,40.00,4,2,10,0.00
2013-5-21,55,43,34,32,20,16,65,43,22,0.00,40.00,4,2,8,0.00
2013-5-22,52,47,34,37,29,21,90,52,39,0.00,40.00,4,2,8,0.00
2013-5-23,64,46,32,39,30,25,98,60,24,0.00,40.00,5,3,11,0.00
2013-5-24,63,54,39,47,33,27,83,47,29,0.00,40.00,5,2,9,0.01
2013-5-25,64,52,39,43,38,34,91,64,36,0.00,40.00,3,1,6,0.00
2013-5-26,70,53,34,46,38,33,97,64,31,0.00,40.00,3,1,6,0.00
2013-5-27,75,58,36,44,37,34,96,54,22,0.00,40.00,3,1,9,0.00
2013-5-28,72,58,39,45,37,33,89,52,26,0.00,40.00,3,1,6,0.00
2013-5-29,73,61,48,50,42,37,97,51,31,0.00,40.00,3,2,6,0.01
2013-5-30,61,51,41,50,45,40,100,83,59,0.00,40.00,2,0,4,0.01
2013-5-31,46,44,39,46,43,38,99,97,93,0.00,40.00,2,0,4,0.03
2013-6-1,46,42,39,43,40,38,100,91,77,0.00,40.00,4,2,7,0.01
2013-6-2,54,46,39,44,39,35,100,81,56,0.00,40.00,3,1,10,0.01
2013-6-3,57,48,32,45,39,32,100,75,48,0.00,40.00,4,2,7,0.01
2013-6-4,52,46,41,46,41,35,100,82,55,0.00,40.00,4,2,8,0.01
2013-6-5,52,45,39,40,38,35,95,76,55,0.00,40.00,4,2,7,0.01
2013-6-6,63,50,39,42,36,27,98,65,28,0.00,40.00,2,1,5,0.00
2013-6-7,59,48,39,45,41,38,98,79,50,0.00,40.00,3,1,6,0.01
2013-6-8,63,52,39,48,40,37,97,68,41,0.00,40.00,3,1,6,0.00
2013-6-9,72,55,43,49,44,40,100,73,32,0.00,40.00,2,0,7,0.02
2013-6-10,75,57,37,56,41,34,98,63,24,0.00,40.00,2,1,5,0.00
2013-6-11,75,60,46,50,42,36,91,57,26,0.00,40.00,2,1,6,0.00
2013-6-12,72,61,46,48,42,38,89,53,29,0.00,40.00,4,2,7,0.00
2013-6-13,63,51,37,47,42,37,97,74,48,0.00,40.00,3,1,6,0.00
2013-6-14,72,54,37,48,40,34,98,65,25,0.00,40.00,2,1,5,0.00
2013-6-15,82,62,43,45,40,36,95,56,20,0.00,40.00,2,1,6,0.00
2013-6-16,79,73,43,54,44,38,92,39,23,0.00,40.00,1,1,5,0.00
2013-6-17,75,63,46,49,40,29,99,46,25,0.00,40.00,3,1,9,0.00
2013-6-18,64,54,45,49,44,37,99,71,49,0.00,40.00,3,1,8,0.03
2013-6-19,77,62,48,50,45,41,94,57,29,0.00,40.00,2,1,6,0.00
2013-6-20,70,58,46,56,51,46,99,77,51,0.00,40.00,1,0,3,0.00
2013-6-21,73,72,70,50,46,45,49,40,36,0.00,40.00,3,2,7,0.00
2013-6-22,57,52,45,53,49,43,97,88,79,0.00,40.00,1,0,3,0.02
2013-6-23,70,56,45,53,48,45,100,79,49,0.00,40.00,2,0,4,0.01
2013-6-24,86,65,41,61,47,41,99,60,24,0.00,40.00,2,1,6,0.00
2013-6-25,75,63,50,59,55,50,100,79,53,0.00,40.00,2,1,5,0.06
2013-6-26,59,54,50,55,53,50,100,98,88,0.00,40.00,1,0,5,0.00
2013-6-27,54,50,46,53,50,46,100,99,98,0.00,40.00,1,0,3,0.01
2013-6-28,61,50,45,53,48,45,100,92,68,0.00,40.00,1,0,3,0.00
2013-6-29,59,53,39,53,47,39,100,83,64,0.00,40.00,1,0,3,0.00
2013-6-30,75,60,41,51,44,41,100,63,31,0.00,40.00,2,1,6,0.00
2013-7-1,55,52,43,55,51,43,99,97,88,0.00,40.00,2,1,5,0.01
2013-7-2,55,52,46,49,46,43,99,81,66,0.00,40.00,4,2,8,0.01
2013-7-3,57,50,45,52,48,44,100,91,74,0.00,40.00,3,1,5,0.01
2013-7-4,57,51,45,48,46,43,100,84,60,0.00,40.00,3,1,6,0.01
2013-7-5,57,50,45,50,46,44,97,85,64,0.00,40.00,2,1,4,0.00
2013-7-6,59,50,45,49,46,43,97,86,59,0.00,40.00,2,0,6,0.00
2013-7-7,54,49,45,51,46,43,98,91,79,0.00,40.00,0,0,3,0.01
2013-7-8,59,50,46,53,47,-100,100,94,68,0.00,40.00,4,1,7,0.04
2013-7-9,55,49,43,47,44,41,100,84,63,0.00,40.00,4,2,7,0.01
2013-7-10,66,54,39,52,38,-100,100,64,36,0.00,40.00,2,1,5,0.00
2013-7-11,57,52,41,52,47,41,100,85,68,0.00,40.00,1,0,4,0.01
2013-7-12,64,53,45,51,48,45,100,84,59,0.00,40.00,3,1,6,0.00
2013-7-13,70,55,46,50,44,28,100,74,22,0.00,40.00,2,1,6,0.01
2013-7-14,70,54,39,53,42,39,100,70,40,0.00,40.00,3,1,6,0.00
2013-7-15,68,56,41,51,46,41,99,71,47,0.00,40.00,2,1,5,0.00
2013-7-16,72,66,55,58,52,47,85,61,51,0.00,40.00,2,1,4,0.00
2013-7-17,75,62,45,56,49,44,99,67,39,0.00,40.00,3,1,6,0.00
2013-7-18,68,64,54,54,52,50,91,65,55,0.00,40.00,3,2,7,0.00
2013-7-19,57,54,52,53,51,48,97,91,82,0.00,40.00,1,0,4,0.00
2013-7-20,55,51,50,54,50,-100,100,97,89,0.00,40.00,1,0,3,0.01
2013-7-21,54,52,48,53,51,48,100,98,95,0.00,40.00,2,1,6,0.03
2013-7-22,68,54,46,58,51,46,100,90,52,0.00,40.00,3,0,5,0.01
2013-7-23,68,56,48,55,50,44,100,82,45,0.00,40.00,2,1,6,0.00
2013-7-24,61,52,43,55,50,43,100,92,70,0.00,40.00,2,1,4,0.10
2013-7-25,55,51,46,55,50,46,100,99,94,0.00,40.00,2,0,4,0.00
2013-7-26,57,52,48,53,50,48,100,91,73,0.00,40.00,2,1,5,0.00
2013-7-27,66,54,46,60,50,46,100,87,62,0.00,40.00,1,0,2,0.01
2013-7-28,79,64,43,58,52,43,100,70,32,0.00,40.00,2,1,3,0.00
2013-7-29,82,63,46,52,49,46,100,67,33,0.00,40.00,2,0,5,0.00
2013-7-30,79,66,46,53,50,46,99,61,38,0.00,40.00,2,1,5,0.00
2013-7-31,75,62,46,56,51,46,100,72,47,0.00,40.00,3,1,5,0.00
2013-8-1,75,66,46,57,51,46,99,61,42,0.00,40.00,3,1,5,0.00
2013-8-2,73,60,45,54,50,44,99,73,49,0.00,40.00,3,1,4,0.00
2013-8-3,70,57,45,57,51,44,100,82,55,0.00,40.00,2,1,6,0.00
2013-8-4,54,53,50,53,52,49,100,99,97,0.00,40.00,0,0,4,0.02
2013-8-5,61,53,48,57,52,48,100,96,84,0.00,40.00,1,0,3,0.01
2013-8-6,73,58,48,58,51,48,100,82,47,0.00,40.00,2,0,5,0.00
2013-8-7,72,59,45,53,49,45,100,75,47,0.00,40.00,2,1,4,0.00
2013-8-8,57,53,46,56,52,46,99,98,94,0.00,40.00,2,0,3,0.02
2013-8-9,61,56,50,55,51,46,99,84,59,0.00,40.00,3,2,6,0.02
2013-8-10,68,56,45,56,47,43,99,74,49,0.00,40.00,2,1,5,0.00
2013-8-11,75,58,41,54,47,41,100,73,45,0.00,40.00,2,1,4,0.00
2013-8-12,75,61,46,56,49,46,100,70,43,0.00,40.00,2,1,5,0.00
2013-8-13,72,58,45,59,47,-100,100,74,51,0.00,40.00,3,1,6,0.00
2013-8-14,75,60,52,55,50,-100,98,78,48,0.00,40.00,2,0,7,0.00
2013-8-15,72,54,46,60,37,-100,99,71,55,0.00,40.00,2,1,5,0.00
2013-8-16,59,54,50,55,52,-100,99,96,87,0.00,40.00,2,1,5,0.01
2013-8-17,59,53,48,56,50,-100,100,94,77,0.00,40.00,1,0,4,0.01
2013-8-18,57,51,46,51,49,46,100,93,72,0.00,40.00,2,1,5,0.01
2013-8-19,54,48,46,49,40,-100,99,88,77,0.00,40.00,3,2,6,0.01
2013-8-20,57,52,46,49,45,-100,99,82,66,0.00,40.00,4,3,8,0.00
2013-8-21,54,50,46,50,48,46,100,95,85,0.00,40.00,3,1,6,0.01
2013-8-22,52,49,46,51,48,46,100,98,92,0.00,40.00,3,1,6,0.01
2013-8-23,52,48,46,51,48,46,100,99,92,0.00,40.00,1,0,4,0.01
2013-8-24,50,48,45,50,46,-100,100,98,97,0.00,40.00,2,0,4,0.08
2013-8-25,61,51,45,56,49,45,100,95,81,0.00,40.00,2,0,5,0.03
2013-8-26,57,51,46,56,50,46,100,96,83,0.00,40.00,1,0,3,0.01
2013-8-27,59,47,43,51,46,43,100,95,59,0.00,40.00,1,0,4,0.00
2013-8-28,55,51,48,54,51,48,100,99,88,0.00,40.00,0,0,1,0.01
2013-8-29,70,53,43,50,46,42,100,84,37,0.00,40.00,2,0,5,0.00
2013-8-30,66,50,41,53,46,41,100,88,48,0.00,40.00,3,0,6,0.04
2013-8-31,55,52,50,55,50,-100,100,99,99,0.00,40.00,1,0,3,0.04
2013-9-1,55,51,48,55,50,48,100,99,93,0.00,40.00,2,0,5,0.01
2013-9-2,55,51,48,53,50,48,100,97,88,0.00,40.00,2,0,4,0.00
2013-9-3,59,51,46,53,48,46,100,89,65,0.00,40.00,5,1,9,0.01
2013-9-4,57,54,48,52,50,48,100,88,76,0.00,40.00,5,3,9,0.01
2013-9-5,55,52,46,52,49,46,99,89,77,0.00,40.00,4,2,9,0.01
2013-9-6,52,48,46,52,48,46,100,100,99,0.00,40.00,0,0,2,0.01
2013-9-7,57,54,52,56,51,-100,100,94,93,0.00,40.00,5,2,9,0.01
2013-9-8,57,53,50,53,48,43,100,81,69,0.00,40.00,8,5,12,0.02
2013-9-9,52,48,45,49,45,43,99,92,73,0.00,40.00,3,1,7,0.00
2013-9-10,54,48,43,51,46,43,100,94,79,0.00,40.00,0,0,3,0.00
2013-9-11,64,53,45,56,50,45,100,91,70,0.00,40.00,6,2,10,0.04
2013-9-12,64,52,46,56,49,46,100,92,58,0.00,40.00,5,0,8,0.06
2013-9-13,61,50,45,50,46,44,100,90,61,0.00,40.00,2,0,5,0.00
2013-9-14,57,49,45,52,45,-100,100,90,64,0.00,40.00,0,0,2,0.00
2013-9-15,66,56,41,48,44,36,100,69,46,0.00,40.00,3,2,7,0.00
2013-9-16,57,50,45,50,48,45,100,94,63,0.00,40.00,2,1,7,0.01
2013-9-17,48,46,43,47,45,43,100,99,95,0.00,40.00,1,0,3,0.01
2013-9-18,45,43,43,45,43,43,100,100,98,0.00,40.00,0,0,1,0.01
2013-9-19,50,44,39,47,42,38,100,92,64,0.00,40.00,4,1,8,0.03
2013-9-20,52,46,43,50,46,42,100,98,90,0.00,40.00,2,0,5,0.03
2013-9-21,50,44,41,46,41,-100,100,91,68,0.00,40.00,5,1,8,0.01
2013-9-22,52,45,41,50,42,41,100,91,66,0.00,40.00,3,1,7,0.01
2013-9-23,52,46,41,47,44,41,100,95,79,0.00,40.00,1,0,4,0.06
2013-9-24,54,44,36,48,41,35,100,91,58,0.00,40.00,2,0,4,0.01
2013-9-25,46,38,32,44,37,32,100,95,81,0.00,40.00,2,0,4,0.00
2013-9-26,48,44,43,47,44,40,100,97,89,0.00,40.00,4,1,6,0.03
2013-9-27,45,43,41,44,43,41,100,98,90,0.00,40.00,3,1,6,0.02
2013-9-28,52,46,41,44,39,-100,100,82,56,0.00,40.00,3,2,7,0.02
2013-9-29,48,46,43,43,40,36,98,80,68,0.00,40.00,4,2,8,0.01
2013-9-30,50,48,45,42,37,35,78,65,57,0.00,40.00,4,3,8,0.00
2013-10-1,48,44,41,46,44,41,99,97,93,0.00,40.00,1,0,2,0.01
2013-10-2,48,43,41,45,42,41,100,98,90,0.00,40.00,0,0,3,0.02
2013-10-3,43,42,39,43,41,39,100,99,96,0.00,40.00,1,0,4,0.06
2013-10-4,45,40,37,44,40,37,100,99,94,0.00,40.00,0,0,3,0.04
2013-10-5,46,42,39,42,40,39,100,96,81,0.00,40.00,4,1,7,0.07
2013-10-6,50,41,34,41,37,32,100,87,53,0.00,40.00,5,1,10,0.00
2013-10-7,48,37,32,43,36,32,100,96,73,0.00,40.00,1,0,3,0.01
2013-10-8,45,38,32,39,35,32,100,91,74,0.00,40.00,10,3,14,0.01
2013-10-9,45,42,39,42,39,36,98,91,79,0.00,40.00,11,5,15,0.01
2013-10-10,45,41,39,42,39,37,99,94,82,0.00,40.00,4,1,7,0.01
2013-10-11,45,42,39,42,40,39,99,94,84,0.00,40.00,4,2,7,0.01
2013-10-12,45,41,39,41,38,-100,99,89,76,0.00,40.00,4,2,7,0.01
2013-10-13,45,41,39,43,40,39,100,97,91,0.00,40.00,6,1,10,0.15
2013-10-14,46,44,41,46,44,41,100,96,86,0.00,40.00,6,2,10,0.05
2013-10-15,46,42,39,41,39,38,100,90,76,0.00,40.00,4,2,8,0.01
2013-10-16,46,43,41,42,40,38,98,90,79,0.00,40.00,4,1,7,0.00
2013-10-17,45,38,32,41,37,32,100,96,79,0.00,40.00,2,0,4,0.01
2013-10-18,43,40,39,43,40,37,99,97,91,0.00,40.00,3,1,6,0.03
2013-10-19,50,44,41,47,42,-100,100,94,81,0.00,40.00,5,2,11,0.01
2013-10-20,50,45,43,47,44,41,100,97,83,0.00,40.00,5,1,11,0.10
2013-10-21,46,39,32,42,38,32,100,96,78,0.00,40.00,1,0,5,0.00
2013-10-22,43,35,30,32,30,27,100,82,56,0.00,40.00,5,2,11,0.00
2013-10-23,48,37,32,45,34,27,100,92,62,0.00,40.00,9,2,13,0.14
2013-10-24,48,41,37,45,40,37,100,94,82,0.00,40.00,7,1,12,0.01
2013-10-25,46,43,39,45,42,39,100,97,90,0.00,40.00,5,2,9,0.02
2013-10-26,50,41,32,46,39,-100,100,96,81,0.00,40.00,2,1,7,0.01
2013-10-27,41,37,32,37,34,30,99,89,69,0.00,40.00,4,1,10,0.00
2013-10-28,43,37,34,38,36,29,99,96,59,0.00,40.00,5,0,10,0.01
2013-10-29,43,41,37,41,38,36,99,92,85,0.00,40.00,5,3,9,0.01
2013-10-30,41,39,37,41,39,37,100,98,91,0.00,40.00,3,0,7,0.05
2013-10-31,45,42,37,40,36,34,100,82,68,0.00,40.00,6,4,11,0.00
2013-11-1,39,37,36,37,35,31,99,91,78,0.00,40.00,5,2,8,0.01
2013-11-2,41,35,32,37,33,-100,100,96,76,0.00,40.00,1,0,3,0.01
2013-11-3,36,31,27,32,31,26,100,99,82,0.00,40.00,0,0,2,0.00
2013-11-4,34,31,27,32,28,21,100,91,63,0.00,40.00,5,1,9,0.00
2013-11-5,32,32,32,32,32,32,100,100,98,0.00,40.00,0,0,2,0.02
2013-11-6,36,34,32,34,27,23,100,74,61,0.00,40.00,6,3,10,0.01
2013-11-7,32,32,28,24,22,15,73,66,53,0.00,40.00,6,4,11,0.00
2013-11-8,28,26,23,18,12,10,64,56,48,0.00,40.00,6,4,10,0.00
2013-11-9,25,22,16,17,11,-100,95,66,56,0.00,40.00,9,6,17,0.01
2013-11-10,32,25,16,32,24,14,99,95,92,0.00,40.00,2,0,4,0.00
2013-11-11,36,32,27,33,31,25,100,96,74,0.00,40.00,3,0,8,0.01
2013-11-12,34,32,28,28,22,19,84,69,60,0.00,40.00,5,4,12,0.00
2013-11-13,32,28,27,26,20,15,90,71,50,0.00,40.00,6,2,11,0.01
2013-11-14,36,32,28,35,31,26,100,96,87,0.00,40.00,8,2,12,0.01
2013-11-15,32,28,21,32,25,10,100,88,56,0.00,40.00,2,0,7,0.00
2013-11-16,21,20,18,11,4,-100,64,50,43,0.00,40.00,7,4,13,0.00
2013-11-17,18,15,10,2,-2,-6,52,46,38,0.00,40.00,8,6,15,0.00
2013-11-18,10,9,5,-5,-8,-10,53,46,42,0.00,40.00,7,5,12,0.00
2013-11-19,5,3,1,-8,-10,-12,57,53,46,0.00,40.00,6,4,12,0.00
2013-11-20,5,5,3,-5,-8,-10,65,55,49,0.00,40.00,9,7,15,0.00
2013-11-21,14,8,5,12,-3,-8,90,60,51,0.00,40.00,9,7,16,0.00
2013-11-22,39,26,14,35,24,12,99,93,84,0.00,40.00,9,3,13,0.07
2013-11-23,32,32,30,32,30,-100,100,98,92,0.00,40.00,6,1,10,0.01
2013-11-24,30,27,21,30,21,14,100,77,65,0.00,40.00,9,5,15,0.00
2013-11-25,27,25,21,26,18,14,98,75,65,0.00,40.00,11,7,17,0.00
2013-11-26,32,29,27,32,29,26,100,99,97,0.00,40.00,0,0,2,0.01
2013-11-27,34,33,32,32,29,24,100,89,71,0.00,40.00,8,2,13,0.01
2013-11-28,37,35,32,34,30,26,100,84,66,0.00,40.00,9,5,13,0.01
2013-11-29,36,25,14,33,18,5,97,75,61,0.00,40.00,12,7,16,0.05
2013-11-30,14,11,9,5,-2,-100,71,59,49,0.00,40.00,7,5,14,0.00
2013-12-1,10,8,7,-6,-9,-11,52,45,41,0.00,40.00,10,8,15,0.00
2013-12-2,16,10,7,-1,-3,-6,66,55,40,0.00,40.00,13,8,22,0.00
2013-12-4,21,21,21,15,15,14,75,74,73,0.00,40.00,0,0,2,0.00
2013-12-5,18,17,16,4,4,4,59,57,54,0.00,40.00,10,10,15,0.00
2013-12-6,21,18,12,17,14,9,89,85,79,0.00,40.00,1,0,2,0.00
2013-12-7,28,23,16,21,18,-100,96,84,68,0.00,40.00,0,0,3,0.00
2013-12-8,21,16,14,20,15,12,96,94,93,0.00,40.00,1,1,3,0.00
2013-12-9,27,24,21,26,23,20,98,97,96,0.00,40.00,0,0,2,0.00
2013-12-10,30,28,27,30,27,26,100,98,83,0.00,40.00,5,0,10,0.00
2013-12-11,30,26,18,27,18,7,86,73,60,0.00,40.00,9,6,14,0.00
2013-12-12,18,14,14,7,2,-2,68,58,47,0.00,40.00,10,8,16,0.00
2013-12-13,18,15,14,17,8,2,96,74,59,0.00,40.00,13,8,19,0.00
2013-12-14,39,30,18,37,28,-100,100,96,81,0.00,40.00,8,2,13,0.01
2013-12-15,32,31,27,29,25,21,91,79,68,0.00,40.00,10,5,15,0.00
2013-12-16,30,23,16,29,18,7,99,82,64,0.00,40.00,11,4,16,0.00
2013-12-17,16,8,3,8,-5,-12,70,56,49,0.00,40.00,9,6,15,0.00
2013-12-18,3,0,-2,-1,-4,-10,86,83,54,0.00,40.00,7,1,11,0.00
2013-12-19,16,9,3,14,7,-1,93,90,82,0.00,40.00,1,0,7,0.00
2013-12-20,14,10,9,7,2,-1,74,70,64,0.00,40.00,13,11,20,0.00
2013-12-21,21,14,7,20,9,-100,94,83,66,0.00,40.00,5,1,10,0.00
2013-12-22,27,25,21,26,24,20,98,97,94,0.00,40.00,0,0,2,0.00
2013-12-23,34,31,23,32,28,19,99,89,77,0.00,40.00,9,4,14,0.00
2013-12-24,23,19,16,19,14,8,94,82,65,0.00,40.00,11,6,16,0.00
2013-12-25,25,22,19,24,21,18,98,94,87,0.00,40.00,6,3,10,0.00
2013-12-26,21,15,9,18,11,0,94,84,67,0.00,40.00,15,8,21,0.00
2013-12-27,16,9,7,11,0,-4,82,66,60,0.00,40.00,14,10,21,0.00
2013-12-28,21,18,16,16,11,-100,89,76,66,0.00,40.00,10,5,16,0.00
2013-12-29,19,17,14,11,7,4,72,67,62,0.00,40.00,15,8,20,0.00
2013-12-30,21,18,14,20,10,4,95,71,62,0.00,40.00,14,8,19,0.00
2013-12-31,27,23,21,26,22,20,98,97,95,0.00,40.00,0,0,2,0.00
2014-1-1,36,30,27,33,29,26,99,96,87,0.00,40.00,8,1,12,0.00
2014-1-2,32,32,32,32,32,30,100,98,91,0.00,40.00,4,1,7,0.01